Regional Weather Roundup
Issued by NWS Newport/Morehead, NC

Home | Current Version | Previous Version | Text Only | Print | Product List | Glossary On
Versions: 1 2 3 4 5 6 7 8 9 10 11 12 13 14 15 16 17 18 19 20 21 22 23 24 25 26 27 28 29 30 31 32 33 34 35 36 37 38 39 40 41 42 43 44 45 46 47 48 49 50
136
ASUS42 KMHX 310325
RWRMHX
WEATHER ROUNDUP FOR EASTERN NORTH CAROLINA
NATIONAL WEATHER SERVICE NEWPORT/MOREHEAD CITY NC
1100 PM EDT SAT JUL 30 2016

NOTE: "FAIR" INDICATES FEW OR NO CLOUDS BELOW 12,000 FEET
WITH NO SIGNIFICANT WEATHER AND/OR OBSTRUCTIONS TO VISIBILITY

NCZ015>017-031-032-045>047-102-103-310400-
NORTH COAST

CITY           SKY/WX    TMP DP  RH WIND       PRES   REMARKS
EDENTON        CLOUDY   N/A N/A N/A SW5       29.99S
ELIZABETH CITY LGT RAIN  76  75  97 CALM      29.98R
KITTY HAWK     MOCLDY    82  82 100 SW6       29.97R
MANTEO         MOCLDY    83  82  98 SW16      29.99R

$$

NCZ045>047-081-094-103-104-310400-
CENTRAL COAST

CITY           SKY/WX    TMP DP  RH WIND       PRES   REMARKS
FRISCO         CLOUDY    81  80  97 SW10      30.01R

$$

NCZ095-097-098-100-101-310400-
SOUTHERN COAST

CITY           SKY/WX    TMP DP  RH WIND       PRES   REMARKS
BEAUFORT       CLEAR     84  81  90 SW12      30.02R
CEDAR ISLAND   NOT AVBL
JACKSONVILLE   CLOUDY    83  76  79 SW7       30.01R
PINEY ISLAND   NOT AVBL
WILMINGTON     CLEAR     83  75  77 SW8       30.02R


$$

NCZ011>013-027>030-043-044-078>080-089-090>093-098-310400-
COASTAL PLAIN

CITY           SKY/WX    TMP DP  RH WIND       PRES   REMARKS
AHOSKIE        PTCLDY    73  72  98 CALM      30.00R
CLINTON        LGT RAIN  78  74  88 S3        30.02R
ELIZABETHTOWN  LGT RAIN  77  76  94 SW5       30.01S
GOLDSBORO      CLOUDY    80  79  97 CALM      30.00R
GREENVILLE     LGT RAIN  77  77 100 CALM      30.01F
HAVELOCK       PTCLDY    84  75  74 SW9       30.01R
KENANSVILLE    NOT AVBL
KINSTON        MOCLDY    78  75  89 CALM      30.02R
NEW BERN       PTCLDY    81  77  88 SW7       30.01R
RICHLANDS      MOCLDY    83  75  77 SW8       30.02R
ROCKY MOUNT    CLOUDY    76  75  97 W3        30.01R
WASHINGTON     DRIZZLE   76  74  93 SW5       30.00F
WHITEVILLE     LGT RAIN  78  70  76 S7        30.00F

$$

AMZ130-135-150-152-154-156-158-170-250-252-270-ANZ085-086-088-633-658-670-310400-
MARINE OBSERVATIONS

STATION/POSITION TIME  TEMP    WIND        PRES    WAVE   SWELL
                       AIR SEA DIR/SP/G            HT/PER HT/PER
                 (UTC) (F)     (DEG/KT/KT) (MB)    (FT/S) (FT/S)
CHESAPEAKE LIGHT NOT AVBL
64 E VA BEACH    0250   81 82  160/  6/ 10 1015.7    2/ 4   2/ 4
DUCK             0200      73  150/ 13/ 14 1013.8
2 E DUCK         0211      80                N/A     2/13
OREGON INLET     0200      80  170/ 11/ 13 1014.7
13E OREGON INLT  0300      78                N/A     2/ 6   2/ 8
HATTERAS CG      0200      83  190/  4/  9 1015.0
DIAMOND BUOY     0250   85 84  200/ 21/ 23 1015.5    4/ 4   2/ 7
CAPE LOOKOUT     0300   84     210/ 10/ 12 1016.3
BEAUFORT LAB     0200      83  220/  7/ 11 1015.1
30 SE NEW RVR IN 0308   85 85  210/ 14/ 17 1016.8
30 SE NEW RVR IN 0225      85                N/A     4/ 5
27 SE WRIGHTSVLE 0308   85 85  210/ 14/ 19 1017.0
5 SE WRIGHTSVLE  0208   83 81  230/ 12/ 16 1016.9
225 S CAPE HAT   0250   85 85  180/ 14/ 16 1019.1    2/ 5   2/ 9
41 SE CHARLESTON 0250   86 86  200/ 16/ 17 1016.5    3/ 4   2/ 9

$$




USA.gov is the U.S. government's official web portal to all federal, state and local government web resources and services.